Weather History for Omaha Offutt, NE

Change the Weather History Date:

Wednesday, May 7, 2014

  Actual Average Record
Temperature  
Mean Temperature 80 °F -  
Max Temperature 96 °F 68 °F 96 °F (2014)
Min Temperature 64 °F 48 °F 39 °F (2013)
Cooling Degree Days 15    
Growing Degree Days 30 (Base 50)    
Moisture  
Dew Point 59 °F    
Average Humidity 56    
Maximum Humidity 99    
Minimum Humidity 18    
Precipitation  
Precipitation 0.00 in - - ()
Sea Level Pressure  
Sea Level Pressure 29.51 in    
Wind  
Wind Speed 12 mph (SSE)    
Max Wind Speed 24 mph    
Max Gust Speed 37 mph    
Visibility 10 miles    
Events Thunderstorm    
Averages and records for this station are not official NWS values.
T = Trace of Precipitation, MM = Missing Value Source: NWS Daily Summary

Daily Weather History Graph

Daily Weather History Graph

Search for Another Location

Airport:

Trip Planner

Search our weather history database for the weather conditions in past years. The results will help you decide how hot, cold, wet, or windy it might be!

Date:

Astronomy

May. 07, 2014 Rise Set
Actual Time 6:14 AM CDT 8:26 PM CDT
Civil Twilight 5:43 AM CDT 8:57 PM CDT
Nautical Twilight 5:06 AM CDT 9:35 PM CDT
Astronomical Twilight 4:24 AM CDT 10:16 PM CDT
Moon 1:29 PM CDT (5/7) 2:17 AM CDT (5/7)
Length of Visible Light 15h 14m
Length of Day
14h 12m
First Quarter, 55% of the Moon is Illuminated
May 7
First Quarter
May 14
Full
May 21
Last Quarter
May 28
New
Jun 5
First Quarter

Hourly Weather History & Observations

Time (CDT) Temp. Heat Index Dew Point Humidity Pressure Visibility Wind Dir Wind Speed Gust Speed Precip Events Conditions
12:58 AM 66.2 °F - 60.3 °F 81% 29.52 in 10.0 mi East 9.2 mph - N/A   Clear
1:58 AM 70.3 °F - 62.4 °F 76% 29.49 in 10.0 mi East 8.1 mph - N/A   Partly Cloudy
2:58 AM 69.4 °F - 63.7 °F 82% 29.49 in 10.0 mi ESE 9.2 mph - N/A   Clear
3:58 AM 68.0 °F - 65.1 °F 90% 29.49 in 10.0 mi ESE 9.2 mph - N/A   Clear
4:58 AM 67.8 °F - 66.0 °F 94% 29.49 in 10.0 mi ESE 5.8 mph - N/A   Clear
5:58 AM 65.8 °F - 65.7 °F 99% 29.50 in 10.0 mi ESE 6.9 mph - N/A   Clear
6:58 AM 64.4 °F - 64.2 °F 99% 29.52 in 10.0 mi ESE 8.1 mph - N/A   Clear
7:58 AM 70.3 °F - 67.5 °F 91% 29.53 in 10.0 mi SE 8.1 mph - N/A   Clear
8:58 AM 74.5 °F - 65.5 °F 73% 29.53 in 10.0 mi SSE 13.8 mph 21.9 mph N/A   Clear
9:58 AM 77.7 °F - 64.8 °F 64% 29.53 in 10.0 mi South 12.7 mph - N/A   Clear
10:58 AM 80.4 °F 81.8 °F 63.5 °F 56% 29.54 in 10.0 mi South 12.7 mph - N/A   Clear
11:58 AM 83.5 °F 84.5 °F 63.3 °F 50% 29.53 in 10.0 mi South 8.1 mph - N/A   Clear
12:58 PM 86.9 °F 87.5 °F 62.6 °F 44% 29.52 in 10.0 mi SSE 15.0 mph 19.6 mph N/A   Clear
1:58 PM 90.7 °F 89.5 °F 57.7 °F 33% 29.50 in 10.0 mi SSE 16.1 mph 25.3 mph N/A   Clear
2:58 PM 93.6 °F 91.2 °F 54.1 °F 26% 29.48 in 10.0 mi South 19.6 mph 26.5 mph N/A   Clear
3:58 PM 94.6 °F - 48.4 °F 21% 29.45 in 10.0 mi SSW 11.5 mph 21.9 mph N/A   Clear
4:24 PM 96.8 °F - 48.2 °F 19% 29.47 in 10.0 mi South 16.1 mph 23.0 mph N/A   Clear
4:58 PM 95.4 °F - 45.3 °F 18% 29.46 in 10.0 mi SSW 20.7 mph 29.9 mph N/A   Clear
5:58 PM 94.6 °F - 47.5 °F 20% 29.45 in 10.0 mi South 17.3 mph 26.5 mph N/A   Clear
6:58 PM 93.0 °F - 50.9 °F 24% 29.45 in 10.0 mi South 16.1 mph 24.2 mph N/A   Clear
7:58 PM 89.4 °F 88.4 °F 58.3 °F 35% 29.46 in 10.0 mi SSE 23.0 mph 29.9 mph N/A Thunderstorm Partly Cloudy
8:48 PM 86.0 °F 86.6 °F 62.6 °F 45% 29.51 in 10.0 mi SSE 23.0 mph 36.8 mph N/A Thunderstorm Thunderstorm
8:58 PM 85.8 °F 86.3 °F 62.2 °F 45% 29.49 in 10.0 mi SSE 24.2 mph 33.4 mph N/A Thunderstorm Thunderstorm
9:26 PM 84.2 °F 85.6 °F 64.4 °F 51% 29.56 in 10.0 mi WSW 16.1 mph 27.6 mph N/A Thunderstorm Mostly Cloudy
9:58 PM 74.8 °F - 55.6 °F 51% 29.55 in 10.0 mi WNW 9.2 mph - N/A   Partly Cloudy
10:58 PM 67.1 °F - 56.5 °F 69% 29.54 in 10.0 mi East 8.1 mph - N/A   Partly Cloudy
11:58 PM 71.6 °F - 55.2 °F 56% 29.60 in 10.0 mi NNW 8.1 mph - N/A Thunderstorm Scattered Clouds